Latest Weather Observations for Albion Park

IDN60801

Issued at 10:02 am EDT Wednesday 22 February 2017 (issued every 30 minutes, with the page automatically refreshed every 10 minutes)

About weather observations | Map of weather stations | Latest weather observations for NSW | Other Formats
Station Details ID: 068241 Name: WOLLONGONG AIRPORT Lat: -34.56 Lon: 150.79 Height: 8.0 m
Data from the previous 72 hours. | See also: Recent months at Albion Park
Date/Time
EDT
Temp
°C
App
Temp
°C
Dew
Point
°C
Rel
Hum
%
Delta-T
°C
Wind Press
QNH
hPa
Press
MSL
hPa
Rain since
9am
mm
Dir  Spd
km/h
Gust
km/h
Spd
kts
Gust
kts
22/10:00am 26.0 22.9 16.5 55 5.8 NNW 28 35 15 19 1021.2 1021.2 0.0
22/09:30am 25.3 23.4 16.7 59 5.3 NNW 22 30 12 16 1021.3 1021.3 0.0
22/09:00am 24.3 23.2 16.3 61 4.9 N 17 46 9 25 1021.4 1021.4 0.0
22/08:30am 23.5 22.3 16.1 63 4.5 N 17 28 9 15 1021.3 1021.3 0.0
22/08:00am 22.3 21.8 16.8 71 3.4 NNW 15 19 8 10 1021.0 1021.0 0.0
22/07:30am 19.5 22.1 17.5 88 1.2 CALM 0 0 0 0 1020.8 1020.8 0.0
22/07:00am 17.1 19.1 16.0 93 0.6 CALM 0 0 0 0 1020.4 1020.4 0.0
22/06:30am 16.6 18.3 15.3 92 0.8 CALM 0 0 0 0 1020.1 1020.1 0.0
22/06:00am 16.8 18.6 15.5 92 0.8 CALM 0 0 0 0 1019.8 1019.8 0.0
22/05:30am 16.9 18.6 15.2 90 1.0 CALM 0 0 0 0 1019.7 1019.7 0.0
22/05:00am 17.0 18.7 15.2 89 1.0 CALM 0 0 0 0 1019.5 1019.5 0.0
22/04:30am 17.5 19.2 15.3 87 1.3 CALM 0 0 0 0 1019.6 1019.6 0.0
22/04:00am 18.3 20.1 15.4 83 1.7 CALM 0 7 0 4 1019.6 1019.6 0.0
22/03:30am 18.4 20.2 15.5 83 1.7 CALM 0 0 0 0 1019.7 1019.7 0.0
22/03:00am 19.3 21.2 15.8 80 2.1 CALM 0 4 0 2 1019.8 1019.8 0.0
22/02:30am 19.7 21.6 15.8 78 2.3 CALM 0 2 0 1 1020.1 1020.1 0.0
22/02:00am 21.4 21.9 15.5 69 3.5 NNW 7 9 4 5 1020.1 1020.1 0.0
22/01:30am 21.5 21.3 15.8 70 3.4 NW 11 13 6 7 1020.3 1020.3 0.0
22/01:00am 20.9 22.1 16.9 78 2.4 NW 6 13 3 7 1020.7 1020.7 0.0
22/12:30am 20.5 21.5 16.9 80 2.2 W 7 11 4 6 1020.9 1020.9 0.0
22/12:00am 20.8 22.1 17.2 80 2.2 NW 6 7 3 4 1020.9 1020.9 0.0
 
Date/Time
EDT
Temp
°C
App
Temp
°C
Dew
Point
°C
Rel
Hum
%
Delta-T
°C
Wind Press
QNH
hPa
Press
MSL
hPa
Rain since
9am
mm
Dir  Spd
km/h
Gust
km/h
Spd
kts
Gust
kts
21/11:30pm 20.7 21.7 16.9 79 2.3 WNW 7 9 4 5 1021.0 1021.0 0.0
21/11:00pm 21.1 22.2 16.7 76 2.7 NW 6 7 3 4 1021.1 1021.1 0.0
21/10:30pm 21.6 21.9 17.0 75 2.8 W 11 13 6 7 1021.2 1021.2 0.0
21/10:00pm 23.5 23.4 17.0 67 4.0 NE 13 17 7 9 1021.3 1021.3 0.0
21/09:30pm 23.6 23.1 16.9 66 4.1 NE 15 20 8 11 1021.1 1021.1 0.0
21/09:00pm 23.5 22.6 16.8 66 4.1 NE 17 24 9 13 1020.7 1020.7 0.0
21/08:30pm 23.6 22.5 16.4 64 4.4 NE 17 24 9 13 1020.6 1020.6 0.0
21/08:00pm 23.3 23.2 16.1 64 4.4 ENE 11 15 6 8 1020.3 1020.3 0.0
21/07:30pm 23.3 22.3 14.6 58 5.1 E 13 17 7 9 1020.0 1020.0 0.0
21/07:00pm 23.9 21.9 14.0 54 5.8 ENE 17 20 9 11 1019.6 1019.6 0.0
21/06:30pm 24.0 22.4 13.8 53 6.0 E 15 20 8 11 1019.4 1019.4 0.0
21/06:00pm 23.9 21.8 13.7 53 5.9 ENE 17 24 9 13 1019.3 1019.3 0.0
21/05:30pm 25.0 23.1 14.2 51 6.4 ENE 17 20 9 11 1019.0 1019.0 0.0
21/05:00pm 25.1 22.7 13.9 49 6.6 ENE 19 24 10 13 1018.9 1018.9 0.0
21/04:30pm 25.3 23.2 13.5 48 6.9 NE 17 22 9 12 1018.8 1018.8 0.0
21/04:00pm 25.3 23.1 13.2 47 7.0 NE 17 24 9 13 1018.8 1018.8 0.0
21/03:30pm 25.6 23.7 14.1 49 6.8 NE 17 26 9 14 1018.8 1018.8 0.0
21/03:00pm 24.9 22.3 13.1 48 6.8 NE 19 26 10 14 1018.9 1018.9 0.0
21/02:30pm 25.4 23.7 14.8 52 6.3 E 17 30 9 16 1019.1 1019.1 0.0
21/02:00pm 24.7 22.3 12.6 47 6.9 E 17 24 9 13 1019.5 1019.5 0.0
21/01:30pm 25.1 22.5 12.0 44 7.5 E 17 24 9 13 1019.5 1019.5 0.0
21/01:00pm 26.2 23.9 13.0 44 7.7 ENE 17 30 9 16 1019.4 1019.4 0.0
21/12:30pm 26.3 24.3 12.7 43 7.9 NE 15 24 8 13 1019.7 1019.7 0.0
21/12:00pm 25.9 23.8 11.3 40 8.2 NE 13 17 7 9 1019.9 1019.9 0.0
21/11:30am 25.6 23.7 11.7 42 7.9 NE 13 19 7 10 1020.2 1020.2 0.0
21/11:00am 25.1 23.8 9.8 38 8.4 ESE 7 13 4 7 1020.5 1020.5 0.0
21/10:30am 24.6 23.5 10.1 40 8.0 NW 6 11 3 6 1020.6 1020.6 0.0
21/10:00am 23.8 22.9 11.5 46 6.9 WSW 7 13 4 7 1020.4 1020.4 0.0
21/09:30am 22.9 21.9 12.2 51 6.1 WSW 9 13 5 7 1020.2 1020.2 0.0
21/09:00am 21.8 20.7 12.1 54 5.4 W 9 13 5 7 1019.8 1019.8 0.0
21/08:30am 20.5 19.8 13.2 63 4.2 WSW 9 11 5 6 1019.3 1019.3 0.0
21/08:00am 18.6 17.4 12.8 69 3.2 WSW 11 15 6 8 1018.9 1018.9 0.0
21/07:30am 13.6 12.9 11.3 86 1.2 W 6 7 3 4 1018.5 1018.5 0.0
21/07:00am 11.4 10.5 9.3 87 1.0 W 4 6 2 3 1018.2 1018.2 0.0
21/06:30am 11.1 10.8 8.5 84 1.3 CALM 0 0 0 0 1017.8 1017.8 0.0
21/06:00am 11.2 10.2 8.8 85 1.2 W 4 7 2 4 1017.4 1017.4 0.0
21/05:30am 11.4 10.7 8.4 82 1.5 W 2 6 1 3 1017.2 1017.2 0.0
21/05:00am 11.2 10.0 8.2 82 1.5 W 4 7 2 4 1017.2 1017.2 0.0
21/04:30am 11.9 11.1 8.0 77 1.9 W 2 9 1 5 1017.1 1017.1 0.0
21/04:00am 12.1 9.8 7.6 74 2.2 W 9 13 5 7 1016.9 1016.9 0.0
21/03:30am 12.3 10.5 8.0 75 2.1 W 7 11 4 6 1017.0 1017.0 0.0
21/03:00am 12.8 11.5 7.7 71 2.5 W 4 13 2 7 1017.0 1017.0 0.0
21/02:30am 11.8 10.2 7.9 77 1.9 SW 6 7 3 4 1017.2 1017.2 0.0
21/02:00am 12.5 11.7 8.0 74 2.2 SW 2 7 1 4 1017.1 1017.1 0.0
21/01:30am 13.2 10.9 7.6 69 2.7 SSW 9 13 5 7 1017.2 1017.2 0.0
21/01:00am 13.5 12.1 7.3 66 3.0 SE 4 9 2 5 1017.2 1017.2 0.0
21/12:30am 15.4 12.9 6.4 55 4.4 WNW 9 13 5 7 1017.0 1017.0 0.0
21/12:00am 17.2 14.9 7.3 52 4.9 NW 9 17 5 9 1016.6 1016.6 0.0
 
Date/Time
EDT
Temp
°C
App
Temp
°C
Dew
Point
°C
Rel
Hum
%
Delta-T
°C
Wind Press
QNH
hPa
Press
MSL
hPa
Rain since
9am
mm
Dir  Spd
km/h
Gust
km/h
Spd
kts
Gust
kts
20/11:30pm 15.6 14.0 6.3 54 4.5 WSW 4 9 2 5 1016.3 1016.3 0.0
20/11:00pm 17.5 14.1 5.8 46 5.7 W 13 19 7 10 1015.8 1015.8 0.0
20/10:30pm 17.2 13.8 6.1 48 5.4 W 13 19 7 10 1015.7 1015.7 0.0
20/10:00pm 15.1 13.3 7.2 59 3.9 NW 6 9 3 5 1015.5 1015.5 0.0
20/09:30pm 16.3 14.3 6.4 52 4.8 W 6 7 3 4 1015.1 1015.1 0.0
20/09:00pm 17.6 15.7 6.8 49 5.4 W 6 9 3 5 1014.4 1014.4 0.0
20/08:30pm 17.8 15.2 6.3 47 5.7 W 9 13 5 7 1013.6 1013.6 0.0
20/08:00pm 19.1 15.7 5.9 42 6.5 WNW 13 15 7 8 1012.9 1012.9 0.0
20/07:30pm 21.9 17.4 4.0 31 8.7 W 17 20 9 11 1012.2 1012.2 0.0
20/07:00pm 24.6 18.6 0.8 21 11.1 W 22 30 12 16 1011.6 1011.6 0.0
20/06:30pm 25.5 19.4 0.2 19 11.7 W 22 32 12 17 1011.0 1011.0 0.0
20/06:00pm 26.0 20.0 1.3 20 11.7 WSW 22 39 12 21 1010.6 1010.6 0.0
20/05:30pm 26.2 19.5 1.5 20 11.8 WSW 26 35 14 19 1010.3 1010.3 0.0
20/05:00pm 26.4 19.5 2.3 21 11.7 WSW 28 37 15 20 1009.9 1009.9 0.0
20/04:30pm 26.6 19.7 2.5 21 11.7 WNW 28 46 15 25 1009.9 1009.9 0.0
20/04:27pm 26.9 20.3 4.0 23 11.5 WNW 28 46 15 25 1009.7 1009.7 0.0
20/04:00pm 26.5 19.8 1.7 20 11.9 W 26 39 14 21 1009.7 1009.7 0.0
20/03:30pm 26.4 20.3 4.8 25 11.0 WNW 26 35 14 19 1009.7 1009.7 0.0
20/03:00pm 25.9 19.0 2.6 22 11.3 W 28 50 15 27 1009.7 1009.7 0.0
20/02:59pm 25.8 18.9 2.5 22 11.3 W 28 50 15 27 1009.7 1009.7 0.0
20/02:30pm 25.4 17.7 3.4 24 10.8 WSW 33 46 18 25 1009.7 1009.7 0.0
20/02:00pm 24.9 16.3 2.4 23 10.8 W 37 48 20 26 1009.6 1009.6 0.0
20/01:30pm 25.0 17.6 5.2 28 10.0 W 33 43 18 23 1009.7 1009.7 0.0
20/01:00pm 24.3 17.8 4.6 28 9.8 W 28 41 15 22 1009.9 1009.9 0.0
20/12:30pm 23.6 15.5 3.5 27 9.8 W 35 46 19 25 1009.9 1009.9 0.0
20/12:00pm 23.2 15.9 4.7 30 9.2 W 32 46 17 25 1009.9 1009.9 0.0
20/11:30am 22.3 13.8 3.4 29 9.1 W 37 48 20 26 1010.1 1010.1 0.0
20/11:00am 21.3 12.5 3.5 31 8.5 W 39 52 21 28 1010.3 1010.3 0.0
20/10:30am 20.8 13.4 4.8 35 7.8 W 33 44 18 24 1010.3 1010.3 0.0
20/10:00am 19.6 10.7 4.9 38 7.1 W 41 56 22 30 1010.3 1010.3 0.0
20/09:30am 19.2 11.6 5.6 41 6.7 W 35 46 19 25 1010.5 1010.5 0.0
20/09:20am 18.7 11.4 4.5 39 6.8 WSW 32 50 17 27 1010.5 1010.5 0.0
20/09:00am 18.1 10.6 4.3 40 6.6 W 33 44 18 24 1010.5 1010.5 0.0
20/08:30am 17.6 10.2 4.9 43 6.1 W 33 52 18 28 1010.4 1010.4 0.0
20/08:29am 17.5 10.2 4.5 42 6.2 W 32 52 17 28 1010.4 1010.4 0.0
20/08:00am 16.6 9.5 5.6 48 5.3 W 32 43 17 23 1010.3 1010.3 0.0
20/07:30am 15.9 9.8 6.6 54 4.5 W 28 39 15 21 1010.2 1010.2 0.0
20/07:25am 15.8 10.4 6.5 54 4.5 W 24 35 13 19 1010.2 1010.2 0.0
20/07:00am 14.0 11.8 8.0 67 3.0 W 9 13 5 7 1010.1 1010.1 0.0
20/06:30am 14.6 11.9 7.4 62 3.5 W 11 13 6 7 1009.9 1009.9 0.0
20/06:00am 15.4 11.1 7.2 58 4.1 WSW 19 32 10 17 1009.5 1009.5 0.0
20/05:30am 16.8 10.8 7.2 53 4.8 W 28 43 15 23 1008.5 1008.5 0.0
20/05:00am 17.0 12.2 7.4 53 4.8 W 22 33 12 18 1008.4 1008.4 0.0
20/04:30am 17.7 11.7 5.3 44 6.0 W 26 54 14 29 1008.1 1008.1 0.0
20/04:00am 17.8 11.4 5.4 44 6.0 W 28 37 15 20 1007.6 1007.6 0.0
20/03:30am 18.2 13.7 4.4 40 6.6 W 17 32 9 17 1007.2 1007.2 0.0
20/03:00am 19.1 14.9 3.7 36 7.3 W 15 26 8 14 1007.1 1007.1 0.0
20/02:30am 18.9 15.1 3.9 37 7.1 W 13 20 7 11 1006.8 1006.8 0.0
20/02:00am 18.8 13.9 4.2 38 7.0 W 19 30 10 16 1006.5 1006.5 0.0
20/01:30am 18.7 13.7 4.8 40 6.7 W 20 28 11 15 1006.3 1006.3 0.0
20/01:00am 19.2 13.5 4.9 39 6.9 WSW 24 32 13 17 1006.4 1006.4 0.0
20/12:30am 19.0 15.7 6.2 43 6.3 WSW 13 22 7 12 1006.7 1006.7 0.0
20/12:00am 18.7 18.3 13.1 70 3.2 WSW 7 15 4 8 1007.0 1007.0 0.0
 
Date/Time
EDT
Temp
°C
App
Temp
°C
Dew
Point
°C
Rel
Hum
%
Delta-T
°C
Wind Press
QNH
hPa
Press
MSL
hPa
Rain since
9am
mm
Dir  Spd
km/h
Gust
km/h
Spd
kts
Gust
kts
19/11:30pm 17.5 19.5 16.0 91 0.9 CALM 0 6 0 3 1006.7 1006.7 0.0
19/11:00pm 17.9 18.3 16.4 91 0.9 WSW 9 13 5 7 1007.1 1007.1 0.0
19/10:30pm 18.6 18.8 16.8 89 1.1 WSW 11 15 6 8 1007.0 1007.0 0.0
19/10:00pm 19.0 19.1 16.6 86 1.4 WSW 11 13 6 7 1006.5 1006.5 0.0
19/09:30pm 19.9 19.8 16.9 83 1.8 WSW 13 20 7 11 1006.6 1006.6 0.0
19/09:00pm 20.0 19.8 16.8 82 1.9 WSW 13 17 7 9 1006.9 1006.9 0.0
19/08:30pm 20.9 22.1 17.3 80 2.2 W 7 13 4 7 1006.6 1006.6 0.0
19/08:00pm 21.8 22.5 17.0 74 2.9 ENE 9 13 5 7 1006.7 1006.7 0.0
19/07:30pm 22.4 23.0 16.7 70 3.5 ENE 9 13 5 7 1006.3 1006.3 0.0
19/07:00pm 23.2 23.1 17.0 68 3.8 ENE 13 17 7 9 1006.1 1006.1 0.0
19/06:30pm 23.1 23.0 15.9 64 4.3 NE 11 17 6 9 1005.5 1005.5 0.0
19/06:00pm 23.5 23.1 16.1 63 4.5 E 13 20 7 11 1005.4 1005.4 0.0
19/05:30pm 23.6 22.6 15.6 61 4.8 ENE 15 20 8 11 1005.2 1005.2 0.0
19/05:00pm 23.7 22.2 15.2 59 5.1 NE 17 20 9 11 1005.4 1005.4 0.0
19/04:30pm 23.7 22.0 14.7 57 5.3 NE 17 20 9 11 1005.5 1005.5 0.0
19/04:00pm 23.8 22.2 15.0 57 5.3 NE 17 22 9 12 1005.6 1005.6 0.0
19/03:30pm 24.1 23.8 16.4 62 4.7 E 13 20 7 11 1006.1 1006.1 0.0
19/03:00pm 23.3 21.6 14.8 59 5.1 ENE 17 20 9 11 1006.3 1006.3 0.0
19/02:30pm 23.5 21.9 15.0 59 5.1 ENE 17 24 9 13 1006.6 1006.6 0.0
19/02:00pm 24.2 23.7 17.0 64 4.5 E 15 26 8 14 1006.8 1006.8 0.0
19/01:30pm 23.1 22.0 15.2 61 4.7 ESE 15 24 8 13 1007.1 1007.1 0.0
19/01:00pm 22.6 20.7 15.2 63 4.4 ESE 19 28 10 15 1007.5 1007.5 0.0
19/12:30pm 23.7 22.9 16.2 63 4.6 ENE 15 20 8 11 1007.9 1007.9 0.0
19/12:00pm 23.0 23.0 14.3 58 5.1 ESE 7 11 4 6 1008.2 1008.2 0.0
19/11:30am 22.4 22.6 14.8 62 4.5 SE 7 11 4 6 1008.7 1008.7 0.0
19/11:00am 21.5 21.5 15.1 67 3.8 W 9 15 5 8 1009.1 1009.1 0.0
19/10:30am 20.9 19.9 14.5 67 3.7 W 13 19 7 10 1009.1 1009.1 0.0

Other Formats:

Comma delimited format used in spreadsheet applications
http://www.bom.gov.au/fwo/IDN60801/IDN60801.95748.axf

JavaScript Object Notation format (JSON) in row-major order
http://www.bom.gov.au/fwo/IDN60801/IDN60801.95748.json